TimeEST,TemperatureF,Dew PointF,Humidity,Sea Level PressureIn,VisibilityMPH,Wind Direction,Wind SpeedMPH,Gust SpeedMPH,PrecipitationIn,Events,Conditions,WindDirDegrees,DateUTC
12:52 AM,24.1,17.1,75,30.27,10.0,West,4.6,-,N/A,,Overcast,270,2014-02-07 05:52:00
1:52 AM,24.1,17.1,75,30.28,10.0,West,5.8,-,N/A,,Overcast,280,2014-02-07 06:52:00
2:52 AM,24.1,17.1,75,30.26,10.0,WNW,3.5,-,N/A,,Overcast,300,2014-02-07 07:52:00
3:52 AM,24.1,17.1,75,30.28,10.0,NW,5.8,-,N/A,,Overcast,310,2014-02-07 08:52:00
4:52 AM,24.1,17.1,75,30.29,10.0,WNW,5.8,-,N/A,,Overcast,290,2014-02-07 09:52:00
5:52 AM,24.1,17.1,75,30.30,10.0,Variable,4.6,-,N/A,,Overcast,0,2014-02-07 10:52:00
6:52 AM,24.1,16.0,71,30.29,10.0,WNW,6.9,-,N/A,,Overcast,300,2014-02-07 11:52:00
7:49 AM,24.8,15.8,69,30.21,10.0,West,6.9,-,N/A,,Overcast,280,2014-02-07 12:49:00
7:52 AM,24.1,16.0,71,30.30,10.0,West,4.6,-,N/A,,Overcast,280,2014-02-07 12:52:00
8:52 AM,24.1,16.0,71,30.31,10.0,Variable,5.8,-,N/A,,Overcast,0,2014-02-07 13:52:00
9:52 AM,25.0,16.0,69,30.35,10.0,West,6.9,-,N/A,,Overcast,280,2014-02-07 14:52:00
10:52 AM,28.0,18.0,66,30.32,10.0,NW,5.8,-,N/A,,Overcast,310,2014-02-07 15:52:00
11:06 AM,28.4,17.6,64,30.25,10.0,SW,6.9,-,N/A,,Overcast,230,2014-02-07 16:06:00
11:52 AM,28.9,17.1,61,30.32,10.0,West,8.1,-,N/A,,Mostly Cloudy,270,2014-02-07 16:52:00
12:03 PM,30.2,17.6,60,30.25,10.0,WSW,5.8,-,N/A,,Partly Cloudy,250,2014-02-07 17:03:00
12:20 PM,32.0,19.4,60,30.24,10.0,Variable,6.9,-,N/A,,Mostly Cloudy,0,2014-02-07 17:20:00
12:43 PM,32.0,17.6,55,30.22,10.0,NW,6.9,-,N/A,,Partly Cloudy,320,2014-02-07 17:43:00
12:52 PM,32.0,18.0,56,30.29,10.0,Variable,4.6,-,N/A,,Partly Cloudy,0,2014-02-07 17:52:00
1:52 PM,35.1,17.1,48,30.27,10.0,West,8.1,16.1,N/A,,Clear,260,2014-02-07 18:52:00
2:52 PM,36.0,18.0,48,30.26,10.0,WNW,9.2,16.1,N/A,,Clear,290,2014-02-07 19:52:00
3:52 PM,37.0,19.0,48,30.25,10.0,WNW,6.9,-,N/A,,Clear,290,2014-02-07 20:52:00
4:52 PM,34.0,19.0,54,30.27,10.0,Variable,5.8,-,N/A,,Clear,0,2014-02-07 21:52:00
5:52 PM,30.9,18.0,59,30.30,10.0,NNW,5.8,-,N/A,,Clear,330,2014-02-07 22:52:00
6:52 PM,28.9,18.0,64,30.30,10.0,Calm,Calm,-,N/A,,Clear,0,2014-02-07 23:52:00
7:52 PM,28.0,17.1,63,30.30,10.0,Calm,Calm,-,N/A,,Clear,0,2014-02-08 00:52:00
8:52 PM,27.0,17.1,66,30.30,10.0,Calm,Calm,-,N/A,,Clear,0,2014-02-08 01:52:00
9:52 PM,26.1,17.1,69,30.28,10.0,Calm,Calm,-,N/A,,Clear,0,2014-02-08 02:52:00
10:52 PM,25.0,17.1,72,30.27,10.0,Calm,Calm,-,N/A,,Clear,0,2014-02-08 03:52:00
11:52 PM,25.0,18.0,75,30.27,10.0,Calm,Calm,-,N/A,,Clear,0,2014-02-08 04:52:00